Regional Weather Roundup
Issued by NWS

Home | Current Version | Previous Version | Text Only | Print | Product List | Glossary Off
Versions: 1 2 3 4 5 6 7 8 9 10 11 12 13 14 15 16 17 18 19 20 21 22 23 24 25 26 27 28 29 30 31 32 33 34 35 36 37 38 39 40 41 42 43 44 45 46 47 48 49 50

000
ASUS43 KIND 021309
RWRIN

WEATHER ROUNDUP FOR INDIANA
NATIONAL WEATHER SERVICE INDIANAPOLIS IN
800 AM EST FRI DEC 02 2016

NOTE: "FAIR" INDICATES FEW OR NO CLOUDS BELOW 12,000 FEET WITH NO
SIGNIFICANT WEATHER AND/OR OBSTRUCTIONS TO VISIBILITY.

* - STATION DOES NOT REPORT WEATHER SUCH AS PRECIPITATION OR FOG.

+ - STATION NOT QUALITY CONTROLLED BY THE NATIONAL WEATHER SERVICE.
    USE DATA WITH CAUTION...ESPECIALLY DEWPOINT AND RELATIVE
    HUMIDITY OBSERVATIONS.

INZ001>003-010>013-019-020-021400-
NORTHWEST INDIANA

CITY           SKY/WX    TMP DP  RH WIND       PRES   REMARKS
GARY /AIRPORT/ CLOUDY    39  34  81 W6        30.11R
KNOX *+        CLOUDY    34  23  64 W9        30.10R WCI  26
LA PORTE +     CLOUDY    38  38 100 W8        30.09S
MICHIGAN CITY+ CLOUDY    37  30  75 W7        30.09S
MONTICELLO +   CLOUDY    35  29  79 W9        30.13R WCI  28
RENSSELAER +   CLOUDY    36  34  93 W8        30.13R
VALPARAISO     CLOUDY    37  33  85 W8        30.10S

$$

LMZ046-743>745-021400-
SOUTHERN LAKE MICHIGAN

STATION/POSITION TIME  TEMP    WIND        PRES    WAVE
                       AIR SEA DIR/SP/G            HT
                 (UTC) (F)     (DEG/KT/KT) (MB)    (FT)
BURNS HARBOR     1230   40     270/ 14/ 22 1019.3R
MICHIGAN CITY    1240   39     260/ 16/ 19   N/A

$$

INZ004-005-014>016-021>024-021400-
NORTH CENTRAL INDIANA

CITY           SKY/WX    TMP DP  RH WIND       PRES   REMARKS
ELKHART        CLOUDY    36  32  87 SW8       30.07R
GOSHEN         LGT RAIN  36  31  82 W13       30.08R
LOGANSPORT +   CLOUDY    34  32  93 W9        30.13R WCI  26
PERU/GRISSOM   FLURRIES  35  33  92 W12       30.11R WCI  27
ROCHESTER +    CLOUDY    36  36 100 W7        30.11R FOG
SOUTH BEND     CLOUDY    36  32  85 W10       30.08R
WARSAW +       CLOUDY    34  32  93 W9        30.09R WCI  26

$$

INZ006>009-017-018-025>027-021400-
NORTHEAST INDIANA

CITY           SKY/WX    TMP DP  RH WIND       PRES   REMARKS
ANGOLA *+      CLOUDY    36  34  93 W9        30.05R
AUBURN +       CLOUDY    36  32  87 W6        30.08R
FORT WAYNE     LGT RAIN  35  32  88 W13       30.10R WCI  26
HUNTINGTON +   CLOUDY    34  33  94 W9        30.11R WCI  27
KENDALLVILLE + DRIZZLE   35  33  93 W10       30.07R WCI  27

$$

INZ028-029-035-036-043>045-051>053-021400-
WEST CENTRAL INDIANA

CITY           SKY/WX    TMP DP  RH WIND       PRES   REMARKS
CRAWFORDSVL +  CLOUDY    33  30  88 W8        30.15R WCI  27
GREENCASTLE +  CLOUDY    34  32  93 W3        30.17R
LAFAYETTE      CLOUDY    36  31  82 W7        30.14R
TERRE HAUTE    CLOUDY    35  30  82 W6        30.18S WCI  30

$$

INZ030>032-037>040-046>048-054>057-064-065-021400-
CENTRAL INDIANA

CITY           SKY/WX    TMP DP  RH WIND       PRES   REMARKS
CP ATTERBURY + CLOUDY    36  30  80 W5        30.17R
COLUMBUS       CLOUDY    36  32  87 W6        30.18R
FISHERS *+     CLOUDY    34  32  93 W9        30.15R WCI  26
FRANKFORT +    CLOUDY    37  33  87 W10       30.15R
GREENWOOD *+   CLOUDY    36  31  81 W8        30.16R
INDIANAPOLIS   CLOUDY    36  29  75 W12       30.15R
-EAGLE CREEK   CLOUDY    36  29  75 VRB5      30.15R
KOKOMO +       CLOUDY    35  31  85 W12       30.13R WCI  27
MARION +       CLOUDY    34  32  93 W10       30.13R FOG     WCI  26
MT COMFORT *+  CLOUDY    36  30  80 W6        30.15R
SHELBYVILLE    CLOUDY    37  29  72 W6        30.15R
ZIONSVILLE +   CLOUDY    33  30  88 W9        30.15R WCI  26

$$

INZ033-034-041-042-049-050-058-059-021400-
EAST CENTRAL INDIANA

CITY           SKY/WX    TMP DP  RH WIND       PRES   REMARKS
MUNCIE         CLOUDY    36  31  82 W10       30.13R

$$

INZ060-061-067>069-081>083-085>088-021400-
SOUTHWEST INDIANA

CITY           SKY/WX    TMP DP  RH WIND       PRES   REMARKS
EVANSVILLE     CLEAR     26  23  88 CALM      30.21R
HUNTINGBURG *+ CLEAR     25  25 100 CALM      30.21R
WASHINGTON +   PTCLDY    31  31 100 CALM      30.20R

$$

INZ062-063-066-070>080-084-089>092-021400-
SOUTH CENTRAL AND SOUTHEAST INDIANA

CITY           SKY/WX    TMP DP  RH WIND       PRES   REMARKS
BLOOMINGTON    CLOUDY    34  29  82 W3        30.17R
MADISON *+     CLOUDY    32  30  93 CALM      30.20R
NORTH VERNON + CLOUDY    36  36 100 W6        30.18R
SEYMOUR +      CLOUDY    34  30  86 SW3       30.19R

$$




USA.gov is the U.S. government's official web portal to all federal, state and local government web resources and services.